YD1OCG-15 Weather Reports


time (UTC)temp
C
wind
direction
speed
KPH
gust
KPH
rain 1hr
cm
rain 24hr
cm
rain mn
cm
humidity
%
barometer
mb
20260502231759 27 131 9.7 0.0 0.00 0.00 0.00 87 1012.0
20260502224754 28 131 9.7 0.0 0.00 0.00 0.00 87 1011.0
20260502221759 26 132 9.7 0.0 0.00 0.00 0.00 86 1012.0
20260502214754 27 132 9.7 0.0 0.00 0.00 0.00 87 1011.0
20260502211754 26 137 9.7 0.0 0.00 0.00 0.00 85 1012.0
20260502204755 27 137 9.7 0.0 0.00 0.00 0.00 87 1011.0
20260502201754 27 134 9.7 0.0 0.00 0.00 0.00 85 1012.0
20260502194755 27 134 9.7 0.0 0.00 0.00 0.00 88 1011.0
20260502191758 27 137 8.0 0.0 0.00 0.00 0.00 89 1013.0
20260502184754 27 137 8.0 0.0 0.00 0.00 0.00 92 1011.0
20260502181754 28 135 6.4 0.0 0.00 0.00 0.00 91 1012.0
20260502161759 28 123 4.8 0.0 0.00 0.00 0.00 87 1014.0
20260502151731 28 105 4.8 0.0 0.00 0.00 0.00 87 1014.0
20260502151238 28 105 4.8 0.0 0.00 0.00 0.00 87 1014.0
20260502121238 29 35 1.6 0.0 0.00 0.00 0.00 87 1011.0
20260502114239 28 342 1.6 0.0 0.00 0.00 0.00 87 1011.0
20260502070003 28 353 19.3 0.0 0.00 0.00 0.00 78 1009.0
20260502062958 29 347 19.3 0.0 0.00 0.00 0.00 74 1009.0
20260502052959 30 337 14.5 0.0 0.00 0.00 0.00 84 1010.0
20260502050002 31 337 14.5 0.0 0.00 0.00 0.00 75 1010.0
20260502042958 31 336 9.7 0.0 0.00 0.00 0.00 82 1011.0
20260502032958 30 346 9.7 0.0 0.00 0.00 0.00 81 1013.0
20260502025953 31 346 9.7 0.0 0.00 0.00 0.00 76 1013.0